Regional Weather Roundup
Issued by NWS Cleveland, OH

Home | Current Version | Previous Version | Graphics & Text | Print | Product List | Glossary On
Versions: 1 2 3 4 5 6 7 8 9 10 11 12 13 14 15 16 17 18 19 20 21 22 23 24 25 26 27 28 29 30 31 32 33 34 35 36 37 38 39 40 41 42 43 44 45 46 47 48 49 50
000
ASUS41 KCLE 010202
RWRCLE
OHIO REGIONAL WEATHER ROUNDUP
NATIONAL WEATHER SERVICE CLEVELAND, OH
1000 PM EDT SAT APR 30 2016

NOTE: "FAIR" INDICATES FEW OR NO CLOUDS BELOW 12,000 FEET WITH NO
SIGNIFICANT WEATHER AND/OR OBSTRUCTIONS TO VISIBILITY.

OHZ001>008-015>018-024>027-034-035-043-044-010300-
   NORTHWEST OHIO

CITY           SKY/WX    TMP DP  RH WIND       PRES   REMARKS
DEFIANCE       CLOUDY    50  46  86 E10       29.92F
FINDLAY        LGT RAIN  52  47  83 E12       29.90F
TOLEDO EXPRESS LGT RAIN  48  47  96 E12       29.95F FOG
TOLEDO EXEC    LGT RAIN  49  46  90 NE9G18    29.96F FOG
LIMA           LGT RAIN  53  52  96 SE13      29.90F
$$

OHZ009>014-019>023-028>033-038-089-010300-
   NORTHEAST OHIO

CITY           SKY/WX    TMP DP  RH WIND       PRES   REMARKS
CLE-HOPKINS    LGT RAIN  53  51  93 NE10      29.99F FOG
CLE-LAKEFRONT  LGT RAIN  51  50  96 NE12      29.98F FOG
CUY CO. ARPT   LGT RAIN  52  50  93 E7        30.01F
LORAIN-ELYRIA  LGT RAIN  50  47  89 E9        29.97F FOG
ASHTABULA      LGT RAIN  52  50  93 E7        30.04F
AKRON-CANTON   LGT RAIN  54  51  90 NE6       29.98F FOG
WOOSTER        LGT RAIN  53  52  96 E8        29.97F FOG
MANSFIELD      LGT RAIN  52  51  97 E10       29.96S FOG
YOUNGSTOWN     LGT RAIN  53  51  93 E9        30.01F
$$

OHZ042-051>053-060>062-070>072-077>081-010300-
  SOUTHWEST OHIO

CITY           SKY/WX    TMP DP  RH WIND       PRES   REMARKS
CINC-COVINGTON LGT RAIN  60  60 100 S10       29.91S
CINC-LUNKEN    LGT RAIN  59  59 100 S5        29.92F FOG
HAMILTON       LGT RAIN  60  58  92 VRB3      29.92R FOG
DAYTON         CLOUDY    56  55  97 SE14      29.90F
WRIGHT-PAT AFB CLOUDY    57  57 100 VRB6      29.90F
DAYTON GENERAL LGT RAIN  57  54  89 SE12      29.89F
WILMINGTON     LGT RAIN  56  55  97 SE10      29.91F FOG
$$

OHZ036-037-039>041-045>050-054>059-063>069-073>076-082>088-010300-
  CENTRAL AND SOUTHEAST OHIO

CITY           SKY/WX    TMP DP  RH WIND       PRES   REMARKS
COLUMBUS       LGT RAIN  55  55 100 SE7       29.94F FOG
OSU AIRPORT    LGT RAIN  56  55  97 SE6       29.93F FOG
BOLTON FIELD   NOT AVBL
RICKENBACK AFB RAIN      56  55  99 SE3       29.94F
NEWARK         LGT RAIN  58  55  90 CALM      29.96R FOG
MARION         LGT RAIN  53  51  93 SE9       29.94F FOG
LANCASTER      LGT RAIN  58  55  90 CALM      29.96R FOG
ZANESVILLE     LGT RAIN  59  56  89 CALM      29.96S
NEW PHILLY     LGT RAIN  55  53  93 E7        29.97F
$$



USA.gov is the U.S. government's official web portal to all federal, state and local government web resources and services.